This is the latest recevied weather packets stored in our database for station/object OE9FWV. If no packets are shown the sender has not sent any weather packets the latest 10 day(s).
| Time | Temp. | Humidity | Pressure | Rain* | Wind** | Luminosity | Snow |
|---|---|---|---|---|---|---|---|
| 1777927029 | 16.11° C | 52% | 1010.8 hPa | 0 mm | - | - | - |
| 1777926421 | 16.67° C | 51% | 1010.7 hPa | 0 mm | - | - | - |
| 1777925820 | 16.67° C | 51% | 1010.7 hPa | 0 mm | - | - | - |
| 1777925215 | 17.22° C | 49% | 1010.5 hPa | 0 mm | - | - | - |
| 1777924607 | 17.78° C | 47% | 1010.4 hPa | 0 mm | - | - | - |
| 1777923999 | 17.78° C | 46% | 1010.3 hPa | 0 mm | - | - | - |
| 1777922787 | 18.89° C | 43% | 1010.2 hPa | 0 mm | - | - | - |
| 1777922183 | 19.44° C | 39% | 1010.3 hPa | 0 mm | - | - | - |
| 1777921573 | 20° C | 40% | 1010.3 hPa | 0 mm | - | - | - |
| 1777920968 | 20.56° C | 38% | 1010.2 hPa | 0 mm | - | - | - |
| 1777920367 | 20.56° C | 37% | 1010.3 hPa | 0 mm | - | - | - |
| 1777919767 | 21.11° C | 37% | 1010.3 hPa | 0 mm | - | - | - |
| 1777919159 | 21.11° C | 35% | 1010.4 hPa | 0 mm | - | - | - |
| 1777916745 | 21.67° C | 33% | 1010.6 hPa | 0 mm | - | - | - |
| 1777916138 | 21.67° C | 33% | 1010.7 hPa | 0 mm | - | - | - |
| 1777914935 | 21.67° C | 33% | 1010.8 hPa | 0 mm | - | - | - |
| 1777914320 | 21.67° C | 33% | 1010.8 hPa | 0 mm | - | - | - |
| 1777913717 | 21.67° C | 33% | 1010.9 hPa | 0 mm | - | - | - |
| 1777913110 | 22.22° C | 33% | 1010.8 hPa | 0 mm | - | - | - |
| 1777912508 | 22.22° C | 33% | 1010.7 hPa | 0 mm | - | - | - |
| 1777911302 | 22.22° C | 33% | 1010.6 hPa | 0 mm | - | - | - |
| 1777908888 | 23.33° C | 32% | 1010.2 hPa | 0 mm | - | - | - |
| 1777908279 | 23.33° C | 31% | 1010.1 hPa | 0 mm | - | - | - |
| 1777907678 | 23.33° C | 31% | 1010 hPa | 0 mm | - | - | - |
| 1777907074 | 23.33° C | 30% | 1009.9 hPa | 0 mm | - | - | - |
* Rain latest hour (hover to see other rain measurements)
** Current wind speed in m/s (hover to see current wind gust speed)